This is the latest recevied weather packets stored in our database for station/object KK4WXG. If no packets are shown the sender has not sent any weather packets the latest 10 day(s).
| Time | Temp. | Humidity | Pressure | Rain* | Wind** | Luminosity | Snow |
|---|---|---|---|---|---|---|---|
| 1777825792 | 12.22° C | 39% | 1016 hPa | 0 mm | - | 547 W/m² | - |
| 1777825490 | 12.78° C | 43% | 1016.1 hPa | 0 mm | - | 306 W/m² | - |
| 1777825187 | 12.22° C | 44% | 1016.3 hPa | 0 mm | - | 305 W/m² | - |
| 1777824884 | 11.67° C | 42% | 1016.4 hPa | 0 mm | - | 1124 W/m² | - |
| 1777824580 | 11.11° C | 43% | 1016.6 hPa | 0 mm | - | 363 W/m² | - |
| 1777824277 | 11.11° C | 43% | 1016.5 hPa | 0 mm | - | 867 W/m² | - |
| 1777823973 | 12.22° C | 45% | 1016.6 hPa | 0 mm | - | 248 W/m² | - |
| 1777823670 | 13.33° C | 40% | 1016.5 hPa | 0 mm | - | 1085 W/m² | - |
| 1777823367 | 12.78° C | 47% | 1016.4 hPa | 0 mm | - | 1039 W/m² | - |
| 1777823065 | 12.22° C | 39% | 1016.7 hPa | 0 mm | - | 1008 W/m² | - |
| 1777822763 | 12.22° C | 38% | 1016.7 hPa | 0 mm | - | 1025 W/m² | - |
| 1777822460 | 11.67° C | 40% | 1016.7 hPa | 0 mm | - | 980 W/m² | - |
| 1777822157 | 11.67° C | 40% | 1016.8 hPa | 0 mm | - | 993 W/m² | - |
| 1777821855 | 11.11° C | 45% | 1016.8 hPa | 0 mm | - | 1014 W/m² | - |
| 1777821552 | 11.11° C | 45% | 1016.8 hPa | 0 mm | - | 187 W/m² | - |
| 1777821250 | 11.11° C | 48% | 1016.7 hPa | 0 mm | - | 984 W/m² | - |
| 1777820947 | 11.67° C | 43% | 1016.7 hPa | 0 mm | - | 327 W/m² | - |
| 1777820643 | 10.56° C | 45% | 1016.6 hPa | 0 mm | - | 923 W/m² | - |
| 1777820339 | 10.56° C | 43% | 1016.6 hPa | 0 mm | - | 148 W/m² | - |
| 1777820037 | 10.56° C | 42% | 1016.8 hPa | 0 mm | - | 890 W/m² | - |
| 1777819734 | 10.56° C | 46% | 1017 hPa | 0 mm | - | 645 W/m² | - |
| 1777819432 | 11.67° C | 42% | 1016.8 hPa | 0 mm | - | 881 W/m² | - |
| 1777819129 | 11.11° C | 45% | 1016.8 hPa | 0 mm | - | 889 W/m² | - |
| 1777818825 | 10.56° C | 43% | 1016.9 hPa | 0 mm | - | 841 W/m² | - |
| 1777818522 | 10.56° C | 48% | 1016.9 hPa | 0 mm | - | 837 W/m² | - |
* Rain latest hour (hover to see other rain measurements)
** Current wind speed in m/s (hover to see current wind gust speed)